Weather past 2 weeks in Jamestown, Saint Helena

Now
62 °F

Cool.


Feels Like: 62 °F
Forecast: 71 / 72 °F
Wind: 14 mph from Southeast

Location: Saint Helena Island

Current Time: Dec 26, 2014 at 5:20:27 AM

Latest Report: Dec 26, 2014 at 4:00 AM


Visibility: N/A

Pressure: 30.02 "Hg

Humidity: 95%

Dew point: 61 °F

Location of JamestownLocation

Historic Weather in Jamestown — Graph

°F

Jamestown temperature yesterday

Maximum temperature yesterday: 68 °F (at 1:00 PM)
Minimum temperature yesterday: 62 °F (at 4:00 AM)
Average temperature yesterday: 65 °F

Past Weeks' High & Low Weather Summary

 TemperatureHumidityPressure
High71 °F (Dec 19, 1:00 PM)100% (Dec 11, 4:00 AM)30.13 "Hg (Dec 11, 4:00 AM)
Low60 °F (Dec 21, 6:00 AM)59% (Dec 18, 1:00 PM)30.00 "Hg (Dec 13, 4:00 AM)
Average64 °F85%30.06 "Hg
* Reported Dec 11 3:00 AM — Dec 26 3:00 AM, Jamestown, Weather by CustomWeather, © 2014

Note: Actual official high and low records may vary slightly from our data, if they occured in-between our weather recording intervals... More about our weather records

Advertising

Jamestown weather history for previous 24 hours

 ConditionsComfort  
Time TempWeatherWind HumidityBarometerVisibility
3:00 AM
Dec 26
62 °FCool.14 mph96%30.02 "HgN/A
1:00 AM62 °FMild.10 mph98%30.06 "HgN/A
12:00 AM62 °FCool.13 mph97%30.09 "HgN/A
11:00 PM
Dec 25
63 °FMild.13 mph93%30.10 "HgN/A
10:00 PM62 °FCool.15 mph98%30.10 "HgN/A
8:00 PM63 °FMild.13 mph87%30.07 "HgN/A
7:00 PM64 °FMild.13 mph89%30.05 "HgN/A
6:00 PM65 °FMild.13 mph85%30.02 "HgN/A
5:00 PM67 °FMild.17 mph82%30.01 "HgN/A
4:00 PM66 °FMild.18 mph85%30.01 "HgN/A
3:00 PM67 °FMild.17 mph85%30.03 "HgN/A
2:00 PM67 °FMild.16 mph84%30.06 "HgN/A
1:00 PM68 °FMild.17 mph78%30.07 "HgN/A
12:00 PM67 °FMild.16 mph78%30.09 "HgN/A
11:00 AM66 °FMild.15 mph83%30.11 "HgN/A
10:00 AM67 °FMild.15 mph83%30.11 "HgN/A
9:00 AM65 °FMild.14 mph85%30.11 "HgN/A
8:00 AM65 °FMild.14 mph85%30.10 "HgN/A
7:00 AM65 °FMild.13 mph85%30.09 "HgN/A
6:00 AM63 °FMild.12 mph91%30.07 "HgN/A
5:00 AM63 °FMild.14 mph92%30.05 "HgN/A
Weather by CustomWeather, © 2014

See weather overviewHow to use our weather pages